Regional Weather Roundup
Issued by NWS

Home | Current Version | Previous Version | Graphics & Text | Print | Product List | Glossary On
Versions: 1 2 3 4 5 6 7 8 9 10 11 12 13 14 15 16 17 18 19 20 21 22 23 24 25 26 27 28 29 30 31 32 33 34 35 36 37 38 39 40 41 42 43 44 45 46 47 48 49 50
000
ASUS43 KOAX 250810
RWRNE

WEATHER ROUNDUP FOR NEBRASKA
NATIONAL WEATHER SERVICE OMAHA NE
300 AM CDT THU AUG 25 2016

NOTES: SATELLITE DATA IS BEING USED TO AUGMENT CLOUD COVER ABOVE
       12000 FEET.
       "FAIR" INDICATES FEW OR NO CLOUDS BELOW 12,000 FEET WITH NO
       SIGNIFICANT WEATHER AND/OR OBSTRUCTIONS TO VISIBILITY.

  * THESE STATIONS DO NOT REPORT WEATHER SUCH AS RAIN...SNOW OR FOG.

NEZ001>004-019>022-054>056-250900-
NEBRASKA PANHANDLE

CITY           SKY/WX    TMP DP  RH WIND       PRES   REMARKS
SCOTTSBLUFF    CLEAR     50  46  86 NE5       30.22S
ALLIANCE       CLEAR     45  44  97 SW3       30.21S
CHADRON        MOCLDY    56  53  90 N5        30.23R
KIMBALL        CLEAR     49  42  78 S6        30.24S
SIDNEY         CLEAR     45  40  82 SW7       30.23S
$$

NEZ057>060-069>072-079>082-250900-
SOUTHWEST NEBRASKA

CITY           SKY/WX    TMP DP  RH WIND       PRES   REMARKS
NORTH PLATTE   PTCLDY    54  50  86 CALM      30.17F
IMPERIAL       CLOUDY    57  49  74 NW5       30.19S
LEXINGTON      PTCLDY    56  53  89 CALM      30.16S
MCCOOK         CLOUDY    58  51  78 CALM      30.16S
OGALLALA       MOCLDY    49  43  81 W3        30.18F
$$

NEZ005>010-023>029-035>040-094-250900-
NORTH CENTRAL NEBRASKA

CITY           SKY/WX    TMP DP  RH WIND       PRES   REMARKS
VALENTINE      CLOUDY    56  51  84 W3        30.18R
AINSWORTH      CLOUDY    60  56  88 SW3       30.16S
BROKEN BOW     MOCLDY    55  52  89 N5        30.16S
O`NEILL        PTCLDY    60  52  76 W6        30.14S
ORD            CLOUDY    59  55  87 CALM      30.13S
THEDFORD       CLOUDY    54  51  90 NW5       30.20R
$$

NEZ041-046>049-061>064-073>077-083>087-250900-
SOUTH CENTRAL NEBRASKA

CITY           SKY/WX    TMP DP  RH WIND       PRES   REMARKS
GRAND ISLAND   PTCLDY    61  55  81 N5        30.12F
AURORA         CLOUDY    60  58  94 NW5       30.11S
HASTINGS       CLOUDY    58  54  86 NE5       30.12F
HEBRON         CLOUDY    61  58  90 CALM      30.10S
HOLDREGE       CLOUDY    58  55  89 CALM      30.14S
KEARNEY *      PTCLDY    61  54  77 CALM      30.13R
YORK           CLOUDY    57  55  94 N6        30.10F
$$

NEZ011>018-030>034-042>045-250900-
NORTHEAST NEBRASKA

CITY           SKY/WX    TMP DP  RH WIND       PRES   REMARKS
NORFOLK        PTCLDY    57  55  93 W6        30.11S
ALBION         CLOUDY    57  54  89 NW5       30.13S
BLAIR          CLOUDY    61  56  85 N7        30.08S
FREMONT        PTCLDY    57  56  95 CALM      30.09F
TEKAMAH        CLEAR     55  53  93 NW5       30.08S
WAYNE          CLOUDY    57  55  95 CALM      30.11S
$$

NEZ050>053-065>068-078-088>093-250900-
SOUTHEAST NEBRASKA

CITY           SKY/WX    TMP DP  RH WIND       PRES   REMARKS
LINCOLN        CLEAR     58  56  93 N5        30.09F
OMAHA EPPLEY   CLOUDY    63  59  87 N7        30.08R
BEATRICE       CLOUDY    58  57  96 CALM      30.08F
FALLS CITY     CLOUDY    66  65  96 N3        30.05R
NEBRASKA CITY  MOCLDY    63  63 100 N6        30.08S
PLATTSMOUTH    CLOUDY    62  60  96 NW3       30.08S
$$

NEZ044-045-051>053-067-250900-
OMAHA AREA

CITY           SKY/WX    TMP DP  RH WIND       PRES   REMARKS
OMAHA EPPLEY   CLOUDY    63  59  87 N7        30.08R
BLAIR          CLOUDY    61  56  85 N7        30.08S
FREMONT        PTCLDY    57  56  95 CALM      30.09F
MILLARD        CLOUDY    62  58  88 NW3       30.08S
OFFUTT AFB     CLOUDY    60  60 100 N1        30.07R
PLATTSMOUTH    CLOUDY    62  60  96 NW3       30.08S
WAHOO          FAIR      57  55  91 N5        30.09S
$$




USA.gov is the U.S. government's official web portal to all federal, state and local government web resources and services.